Rome, NY

1:20 PM EDT on March 26, 2017 (GMT -0400)
Griffiss

Weather History for KRME - April, 2013

Change the Weather History Date:

Wednesday, April 10, 2013

  Actual Average Record
Temperature  
Mean Temperature 48 °F -  
Max Temperature 53 °F 52 °F 66 °F (1993)
Min Temperature 43 °F 31 °F 19 °F (2016)
Degree Days  
Heating Degree Days 18    
Moisture  
Dew Point 45 °F    
Average Humidity 93    
Maximum Humidity 100    
Minimum Humidity 80    
Precipitation  
Precipitation 0.70 in - - ()
Sea Level Pressure  
Sea Level Pressure 29.95 in    
Wind  
Wind Speed 4 mph (NNW)    
Max Wind Speed 12 mph    
Max Gust Speed -    
Visibility 8 miles    
Events Rain    
Averages and records for this station are not official NWS values.
T = Trace of Precipitation, MM = Missing Value Source: NWS Daily Summary

Daily Weather History Graph

Daily Weather History Graph

Search for Another Location

Airport or City:

Trip Planner

Search our weather history database for the weather conditions in past years. The results will help you decide how hot, cold, wet, or windy it might be!

Date:

Astronomy

Apr. 10, 2013 Rise Set
Actual Time 6:27 AM EDT 7:38 PM EDT
Civil Twilight 5:58 AM EDT 8:08 PM EDT
Nautical Twilight 5:23 AM EDT 8:43 PM EDT
Astronomical Twilight 4:46 AM EDT 9:20 PM EDT
Moon 6:21 AM EDT (4/10) 8:14 PM EDT (4/10)
Length of Visible Light 14h 10m
Length of Day
13h 11m
New Moon, 0% of the Moon is Illuminated
Apr 10
New Moon
Apr 18
First Quarter
Apr 25
Full
May 2
Last Quarter
May 9
New

Hourly Weather History & Observations

Time (EDT) Temp. Windchill Dew Point Humidity Pressure Visibility Wind Dir Wind Speed Gust Speed Precip Events Conditions
12:53 AM 45.0 °F 41.2 °F 45.0 °F 100% 29.95 in 6.0 mi SE 6.9 mph - 0.21 in Rain Rain
1:53 AM 46.0 °F 43.1 °F 45.0 °F 96% 29.96 in 8.0 mi NW 5.8 mph - 0.06 in Rain Light Rain
2:53 AM 46.0 °F - 45.0 °F 96% 29.95 in 8.0 mi Calm Calm - 0.07 in Rain Light Rain
3:39 AM 45.0 °F - 45.0 °F 100% 29.94 in 7.0 mi Calm Calm - 0.03 in Rain Light Rain
3:53 AM 45.0 °F - 45.0 °F 100% 29.95 in 10.0 mi Calm Calm - 0.03 in Rain Light Rain
4:04 AM 45.0 °F - 45.0 °F 100% 29.95 in 10.0 mi Calm Calm - 0.00 in Rain Light Rain
4:15 AM 45.0 °F 43.5 °F 44.1 °F 97% 29.95 in 10.0 mi SE 3.5 mph - 0.00 in   Overcast
4:53 AM 45.0 °F - 45.0 °F 100% 29.96 in 9.0 mi Calm Calm - 0.00 in Rain Light Rain
5:23 AM 45.0 °F 42.6 °F 45.0 °F 100% 29.96 in 4.0 mi NNW 4.6 mph - 0.01 in   Overcast
5:32 AM 45.0 °F 43.5 °F 45.0 °F 100% 29.96 in 3.0 mi NNW 3.5 mph - 0.01 in   Overcast
5:53 AM 45.0 °F - 45.0 °F 100% 29.96 in 4.0 mi Calm Calm - 0.01 in   Overcast
6:02 AM 45.0 °F 43.5 °F 45.0 °F 100% 29.97 in 4.0 mi WNW 3.5 mph - N/A   Overcast
6:53 AM 45.0 °F 42.6 °F 44.1 °F 97% 29.99 in 10.0 mi West 4.6 mph - N/A   Overcast
7:25 AM 45.0 °F 42.6 °F 45.0 °F 100% 29.99 in 10.0 mi WNW 4.6 mph - N/A   Overcast
7:53 AM 45.0 °F 43.5 °F 45.0 °F 100% 29.99 in 7.0 mi WNW 3.5 mph - 0.00 in Rain Light Rain
8:53 AM 46.9 °F - 45.0 °F 93% 30.00 in 10.0 mi North 5.8 mph - 0.00 in   Overcast
9:07 AM 46.9 °F - 45.0 °F 93% 30.00 in 10.0 mi NNW 6.9 mph - N/A   Overcast
9:53 AM 48.0 °F - 45.0 °F 89% 30.00 in 10.0 mi North 5.8 mph - N/A   Overcast
10:07 AM 48.0 °F - 45.0 °F 89% 30.00 in 10.0 mi NW 3.5 mph - N/A   Overcast
10:53 AM 50.0 °F - 46.0 °F 86% 30.00 in 10.0 mi Variable 4.6 mph - N/A   Overcast
11:07 AM 51.1 °F - 46.0 °F 83% 29.99 in 10.0 mi Variable 4.6 mph - N/A   Overcast
11:53 AM 50.0 °F - 45.0 °F 83% 29.99 in 10.0 mi WNW 3.5 mph - N/A   Overcast
12:53 PM 48.9 °F - 46.0 °F 90% 30.04 in 4.0 mi NW 6.9 mph - 0.03 in Rain Rain
1:50 PM 51.8 °F - 48.2 °F 88% 29.95 in 10.0 mi South 5.8 mph - 0.03 in   Overcast
1:53 PM 51.1 °F - 48.9 °F 92% 29.94 in 10.0 mi South 4.6 mph - 0.03 in   Mostly Cloudy
2:04 PM 52.0 °F - 48.0 °F 86% 29.94 in 10.0 mi NE 5.8 mph - N/A   Mostly Cloudy
2:22 PM 52.0 °F - 46.9 °F 83% 29.95 in 10.0 mi ENE 3.5 mph - N/A   Overcast
2:35 PM 52.0 °F - 46.0 °F 80% 29.94 in 10.0 mi Calm Calm - N/A   Overcast
2:45 PM 52.0 °F - 46.0 °F 80% 29.94 in 10.0 mi East 4.6 mph - N/A   Overcast
2:53 PM 52.0 °F - 46.0 °F 80% 29.94 in 10.0 mi ENE 4.6 mph - N/A   Overcast
3:53 PM 51.1 °F - 46.0 °F 83% 29.92 in 10.0 mi Calm Calm - N/A   Overcast
4:53 PM 48.9 °F - 46.9 °F 93% 29.89 in 4.0 mi North 5.8 mph - 0.03 in Rain Light Rain
5:12 PM 48.9 °F - 46.0 °F 90% 29.90 in 1.8 mi NW 6.9 mph - 0.06 in Rain Heavy Rain
5:25 PM 48.0 °F - 46.9 °F 96% 29.88 in 3.0 mi NNE 4.6 mph - 0.09 in Rain Rain
5:53 PM 46.9 °F - 46.0 °F 97% 29.94 in 2.0 mi NNW 9.2 mph - 0.16 in Rain Heavy Rain
6:00 PM 46.9 °F - 46.0 °F 97% 29.90 in 1.2 mi NNE 6.9 mph - 0.03 in Rain Heavy Rain
6:07 PM 46.9 °F - 46.0 °F 97% 29.87 in 3.0 mi East 8.1 mph - 0.05 in Rain Heavy Rain
6:53 PM 48.0 °F - 45.0 °F 89% 29.89 in 10.0 mi Calm Calm - 0.07 in   Partly Cloudy
7:53 PM 46.9 °F - 44.1 °F 90% 29.91 in 10.0 mi NNW 4.6 mph - N/A   Overcast
8:20 PM 46.0 °F 43.9 °F 43.0 °F 89% 29.90 in 10.0 mi Variable 4.6 mph - N/A   Overcast
8:53 PM 45.0 °F 39.3 °F 43.0 °F 93% 29.88 in 10.0 mi NNE 11.5 mph - 0.00 in   Overcast
9:53 PM 45.0 °F 41.8 °F 42.1 °F 90% 29.94 in 10.0 mi Variable 5.8 mph - N/A   Overcast
10:53 PM 44.1 °F 41.5 °F 42.1 °F 93% 29.94 in 10.0 mi WSW 4.6 mph - 0.00 in   Overcast
11:46 PM 43.0 °F 37.7 °F 41.0 °F 93% 29.98 in 10.0 mi NW 9.2 mph - N/A   Overcast
11:53 PM 43.0 °F 37.7 °F 41.0 °F 93% 29.99 in 10.0 mi NNW 9.2 mph - N/A   Overcast